Regional Weather Roundup
Issued by NWS Sterling, VA

Home | Current Version | Previous Version | Graphics & Text | Print | Product List | Glossary On
Versions: 1 2 3 4 5 6 7 8 9 10 11 12 13 14 15 16 17 18 19 20 21 22 23 24 25 26 27 28 29 30 31 32 33 34 35 36 37 38 39 40 41 42 43 44 45 46 47 48 49 50
000
ASUS41 KLWX 121810
RWRLWX

REGIONAL WEATHER ROUNDUP
NATIONAL WEATHER SERVICE BALTIMORE MD/WASHINGTON DC
100 PM EST FRI FEB 12 2016

Note: "FAIR" indicates few or no clouds below 12,000 feet
with no significant weather and/or obstructions to visibility.
 TC=TEMPERATURE CELSIUS

 * =Non NWS site. Station does not report precipitation (e.g. rain,
    snow, etc.), thunder, or fog.

DCZ001-MDZ009-015-VAZ040>042-051-053>054-121900-
WASHINGTON METRO

CITY           SKY/WX    TMP DP  RH WIND       PRES   REMARKS
WASHINGTON NAT CLOUDY    28   7  41 S6        30.17F
DULLES         CLOUDY    29   6  38 S12       30.13F WCI  19
ANDREWS AFB    PTSUNNY   28   5  37 VRB7      30.14F
FT BELVOIR     CLOUDY    28   5  37 S8        30.16F WCI  20
QUANTICO       CLOUDY    29  11  47 S12       30.18F WCI  19
COLLEGE PARK*  FAIR      30   5  34 S3        30.15F
LEESBURG*      CLOUDY    30  10  43 S8        30.13F WCI  23
MANASSAS*      MOSUNNY   28   9  43 S9        30.16F WCI  20
GAITHERSBURG*  CLOUDY    27   7  43 SW3       30.16F

$$

MDZ006>007-011-014-121900-
BALTIMORE METRO

CITY           SKY/WX    TMP DP  RH WIND       PRES   REMARKS
BWI AIRPORT    CLOUDY    27   3  35 VRB3      30.16F
MD SCIENCE CTR   N/A     28   5  37 MISG      30.19F
MARTIN STATE   MOSUNNY   27  10  50 SE6       30.20F
ANNAPOLIS      CLOUDY    25  10  53 SE9       30.17F WCI  15
FORT MEADE*    CLOUDY    30   5  34 SW8       30.17F WCI  23

$$

MDZ012-015-019>023-121900-
MARYLAND EASTERN SHORE

CITY           SKY/WX    TMP DP  RH WIND       PRES   REMARKS
OCEAN CITY     CLOUDY    25   7  46 S6        30.20F
SALISBURY      MOSUNNY   29   5  36 SW8       30.18F WCI  21
BAY BRIDGE AP*   N/A     28   3  34 CALM      30.18F
CAMBRIDGE*     PTSUNNY   28   9  43 NW6       30.16F
EASTON*        PTSUNNY   27   7  43 SW3       30.22F

$$

MDZ017>025-121900-
SOUTHERN MARYLAND

CITY           SKY/WX    TMP DP  RH WIND       PRES   REMARKS
PATUXENT RIVER CLOUDY    26   7  44 SE8       30.18F WCI  18
ST INIGOES     CLOUDY    26   6  42 W6        30.18F
LEONARDTOWN*   PTSUNNY   28   5  37 SW6       30.19

$$

MDZ003>005-121900-
NORTH CENTRAL MARYLAND

CITY           SKY/WX    TMP DP  RH WIND       PRES   REMARKS
FREDERICK*     SUNNY     27  10  50 SW6       30.17F
HAGERSTOWN APT CLOUDY    24   5  44 S7        30.09F
WESTMINSTER*   CLOUDY    25  12  58 SW5       30.09F

$$

MDZ501>502-121900-
WESTERN MARYLAND

CITY           SKY/WX    TMP DP  RH WIND       PRES   REMARKS
OAKLAND*       CLOUDY    14   9  79 W9        29.90F HAZE    WCI   2
CUMBERLAND*    MOSUNNY   27   9  46 SE5       30.10F

$$

VAZ025>031-121900-
SHENANDOAH VALLEY

CITY           SKY/WX    TMP DP  RH WIND       PRES   REMARKS
WINCHESTER*    CLOUDY    30   9  40 S3        30.08F
FRONT ROYAL*   CLOUDY    30   9  40 N3        30.06F
LURAY*         CLOUDY    30  10  43 SW9       30.06F WCI  22
NEW MARKET*    CLOUDY    29  11  46 S9        30.05F WCI  21
STAUNTON*      CLOUDY    35  10  35 S13G20    30.06F WCI  26
WAYNESBORO*    CLOUDY    31   6  35 SW5       30.04F

$$

WVZ021-048>050-054>055-121900-
EASTERN WEST VIRGINIA PANHANDLE

CITY           SKY/WX    TMP DP  RH WIND       PRES   REMARKS
MARTINSBURG    CLOUDY    29   6  38 S13       30.09F WCI  19
PETERSBURG*    CLOUDY    29   9  41 CALM      30.04F

$$

VAZ036>039-050-121900-
CENTRAL FOOTHILLS

CITY           SKY/WX    TMP DP  RH WIND       PRES   REMARKS
CHARLOTTESVILL CLOUDY    29   6  38 SW10      30.12F WCI  20
CULPEPER*      CLOUDY    28   6  39 S8        30.14F WCI  20
ORANGE*        CLOUDY    30   7  37 S12       30.15F WCI  21
GORDONSVILLE*  CLOUDY    28   7  39 SW9       30.13F WCI  20
WARRENTON*     CLOUDY    30  12  46 S6        30.12F

$$

VAZ055>057-121900-
NORTH AND CENTRAL PIEDMONT

CITY           SKY/WX    TMP DP  RH WIND       PRES   REMARKS
FREDERICKSBRG* FAIR      29   8  41 SE6       30.16F
STAFFORD*      CLOUDY    28   4  36 S9        30.20F WCI  19

$$

NCZ024-NYZ072-PAZ021-071-VAZ022-071-121900-
OTHER REGIONAL OBSERVATIONS

CITY           SKY/WX    TMP DP  RH WIND       PRES   REMARKS
NEW YORK CITY  SUNNY     25  -1  32 SW6       30.14F
PHILADELPHIA   PTSUNNY   25   1  35 W10       30.18F WCI  15
PITTSBURGH     CLOUDY    19   4  51 SW9       30.04F WCI   8
ROANOKE        CLOUDY    30  11  45 VRB5      30.10F
RICHMOND       CLOUDY    26   4  38 S3        30.18F
RALEIGH        LGT SNOW  27  18  69 CALM      30.16F FOG

$$

ANZ530>537-121900-
MARINE OBSERVATIONS

STATION/POSITION TIME  TEMP    WIND        PRES
                       AIR SEA DIR/SP/G
                 (UTC) (F)     (DEG/KT/KT) (MB)
THOMAS PT LIGHT  1800   23 36  140/  8/ 10 1022.6F
BALT KEY BRIDGE  1700   22      80/  5/  6 1023.6F
COVE POINT       1700   23     150/  6/  8 1024.2F
LEWISETTA        1700   24 37  110/  5/  6 1023.3F
SOLOMONS ISLAND  1700   26 39  130/  3/  4   N/A
PINEY POINT      1700          170/  5/  6   N/A

$$




USA.gov is the U.S. government's official web portal to all federal, state and local government web resources and services.